GW2240 Weather Reports


Display with metric or nautical units.
time (UTC)temp
F
wind
direction
speed
MPH
gust
MPH
rain 1hr
in
rain 24hr
in
rain mn
in
humidity
%
barometer
mb
20260508034539 69 322 0.0 4.0 0.00 0.00 0.00 74 1013.9
20260508033048 69 38 0.0 2.0 0.00 0.00 0.00 74 1013.7
20260508031538 70 201 0.0 2.0 0.00 0.00 0.00 74 1014.1
20260508030036 70 2 0.0 2.0 0.00 0.00 0.00 73 1014.0
20260508024536 70 19 0.0 3.0 0.00 0.00 0.00 72 1014.4
20260508023039 70 357 0.0 3.0 0.00 0.00 0.00 74 1014.4
20260508021536 71 345 0.0 2.0 0.00 0.00 0.00 73 1013.9
20260508020041 71 351 0.0 1.0 0.00 0.00 0.00 73 1014.3
20260508014533 71 358 0.0 0.0 0.00 0.00 0.00 74 1014.0
20260508013032 71 346 0.0 0.0 0.00 0.00 0.00 73 1014.1
20260508011536 72 334 0.0 2.0 0.00 0.00 0.00 72 1014.1
20260508010036 72 334 0.0 0.0 0.00 0.00 0.00 71 1013.9
20260508004533 72 295 0.0 0.0 0.00 0.00 0.00 74 1013.7
20260508003032 73 11 0.0 1.0 0.00 0.00 0.00 73 1013.9
20260508001545 74 354 0.0 2.0 0.00 0.00 0.00 70 1014.1
20260508000029 74 347 0.0 2.0 0.00 0.00 0.00 71 1014.0
20260507234529 74 19 0.0 7.0 0.00 0.00 0.00 69 1014.3
20260507233033 75 36 0.0 4.0 0.00 0.00 0.00 70 1014.2
20260507231527 75 29 0.0 3.0 0.00 0.00 0.00 70 1014.0
20260507230032 75 2 0.0 3.0 0.00 0.00 0.00 70 1014.1
20260507224532 75 341 0.0 1.0 0.00 0.00 0.00 71 1013.7
20260507223026 75 335 0.0 3.0 0.00 0.00 0.00 69 1013.6
20260507221526 76 94 0.0 3.0 0.00 0.00 0.00 70 1013.6
20260507220025 75 333 0.0 3.0 0.00 0.00 0.00 70 1014.0
20260507214524 77 65 0.0 6.0 0.00 0.00 0.00 69 1013.9
20260507213031 76 41 0.0 4.0 0.00 0.00 0.00 70 1014.0
20260507211532 76 6 0.0 3.0 0.00 0.00 0.00 70 1014.1
20260507210023 77 21 1.0 4.0 0.00 0.00 0.00 71 1014.3
20260507204521 77 25 2.0 5.0 0.00 0.00 0.00 70 1014.3
20260507203019 77 36 0.0 6.0 0.00 0.00 0.00 71 1014.2
20260507201527 77 11 2.0 5.0 0.00 0.00 0.00 70 1014.5
20260507200020 77 29 2.0 6.0 0.00 0.00 0.00 70 1014.6
20260507194515 77 42 0.0 3.0 0.00 0.00 0.00 70 1014.8
20260507193015 76 348 0.0 4.0 0.00 0.00 0.00 72 1014.7
20260507191511 75 335 0.0 6.0 0.00 0.00 0.00 73 1015.2
20260507190008 74 63 0.0 5.0 0.00 0.00 0.00 73 1015.9
20260507184504 74 341 0.0 5.0 0.00 0.00 0.00 73 1015.8
20260507183002 74 356 0.0 5.0 0.00 0.00 0.00 73 1015.8
20260507181600 73 22 0.0 6.0 0.00 0.00 0.00 74 1016.0
20260507180059 72 46 0.0 5.0 0.00 0.00 0.00 76 1016.2
20260507174555 70 352 1.0 5.0 0.00 0.08 0.00 77 1016.5
20260507173102 70 25 0.0 6.0 0.00 0.08 0.00 78 1016.9
20260507171555 70 346 1.0 5.0 0.00 0.08 0.00 76 1016.7
20260507170055 70 31 0.0 5.0 0.00 0.08 0.00 78 1016.7
20260507164550 69 348 1.0 6.0 0.00 0.08 0.00 77 1016.7
20260507163147 68 14 0.0 6.0 0.00 0.08 0.00 80 1016.4
20260507161551 67 14 0.0 9.0 0.00 0.08 0.00 80 1016.1
20260507160045 67 272 1.0 6.0 0.00 0.08 0.00 81 1015.8
20260507154545 65 346 0.0 6.0 0.00 0.08 0.00 83 1016.1
20260507153043 65 25 1.0 6.0 0.00 0.08 0.00 83 1016.7
20260507151541 64 306 0.0 5.0 0.00 0.08 0.00 83 1016.5
20260507150039 63 11 1.0 8.0 0.00 0.08 0.00 85 1015.9
20260507144539 63 6 0.0 7.0 0.00 0.08 0.00 86 1016.1
20260507143037 63 13 1.0 7.0 0.00 0.08 0.00 86 1016.4
20260507141538 63 8 1.0 5.0 0.00 0.08 0.00 87 1016.2
20260507140038 63 13 1.0 9.0 0.00 0.08 0.00 87 1016.5
20260507134536 62 173 1.0 8.0 0.00 0.08 0.00 87 1016.4
20260507133043 62 27 1.0 7.0 0.00 0.08 0.00 88 1016.5
20260507131543 62 34 1.0 4.0 0.00 0.08 0.00 88 1016.6
20260507130037 62 353 0.0 7.0 0.00 0.08 0.00 87 1016.6
20260507124530 63 350 1.0 8.0 0.00 0.08 0.00 88 1016.5
20260507123026 63 307 1.0 5.0 0.00 0.08 0.00 88 1016.1
20260507121525 63 4 1.0 4.0 0.00 0.08 0.00 89 1015.1
20260507120024 63 11 0.0 5.0 0.00 0.08 0.00 89 1015.2
20260507114522 63 318 0.0 8.0 0.00 0.08 0.00 88 1015.0
20260507113025 63 327 0.0 6.0 0.00 0.08 0.00 88 1015.0
20260507111520 64 358 0.0 4.0 0.00 0.08 0.00 88 1014.6
20260507110016 64 348 0.0 2.0 0.00 0.08 0.00 88 1014.6
20260507104514 64 354 0.0 4.0 0.00 0.08 0.00 88 1014.1
20260507103012 65 4 0.0 2.0 0.00 0.08 0.00 88 1013.9
20260507101511 65 354 0.0 2.0 0.00 0.08 0.00 88 1013.7
20260507100015 65 346 0.0 3.0 0.00 0.08 0.00 88 1013.8
20260507094608 65 24 0.0 3.0 0.00 0.08 0.00 88 1013.4
20260507093014 65 344 0.0 5.0 0.00 0.08 0.00 87 1013.4
20260507091507 65 13 0.0 4.0 0.00 0.08 0.00 88 1013.4
20260507090007 65 25 0.0 4.0 0.00 0.08 0.00 88 1013.5
20260507084517 65 12 0.0 5.0 0.00 0.08 0.00 87 1013.4
20260507083004 65 14 1.0 10.0 0.00 0.08 0.00 87 1013.5
20260507081501 66 38 1.0 6.0 0.00 0.08 0.00 86 1013.3
20260507080101 66 54 1.0 7.0 0.00 0.08 0.00 86 1013.4
20260507074605 66 349 0.0 4.0 0.00 0.08 0.00 87 1013.6
20260507073057 66 7 0.0 6.0 0.00 0.08 0.00 86 1013.5
20260507071605 67 335 0.0 4.0 0.00 0.08 0.00 86 1013.5
20260507070106 67 46 0.0 4.0 0.00 0.08 0.00 85 1014.0
20260507064557 67 357 0.0 5.0 0.00 0.08 0.00 86 1013.8
20260507063053 67 329 0.0 5.0 0.00 0.08 0.00 85 1013.7
20260507061553 67 21 0.0 6.0 0.00 0.08 0.00 85 1013.9
20260507060051 67 247 0.0 5.0 0.00 0.08 0.00 85 1013.4
20260507054608 67 350 0.0 5.0 0.00 0.08 0.00 84 1013.7
20260507053058 67 350 0.0 5.0 0.00 0.08 0.00 85 1013.7
20260507051554 67 5 0.0 4.0 0.00 0.08 0.00 85 1013.6
20260507050050 67 360 0.0 8.0 0.00 0.08 0.00 84 1013.5
20260507044552 68 14 0.0 4.0 0.00 0.08 0.08 84 1013.6
20260507043042 68 358 0.0 4.0 0.00 0.08 0.08 84 1013.3
20260507041545 68 359 0.0 4.0 0.00 0.08 0.08 84 1013.2
20260507040139 69 21 1.0 6.0 0.00 0.08 0.08 84 1013.4